| time (UTC) | temp F | wind direction | speed MPH | gust MPH | rain 1hr in | rain 24hr in | rain mn in | humidity % | barometer mb |
| 20260509020007 | 54 | 216 | 1.0 | 6.0 | 0.00 | 0.00 | 0.00 | 74 | 1022.1 |
| 20260509014520 | 55 | 197 | 1.0 | 5.0 | 0.00 | 0.00 | 0.00 | 73 | 1022.1 |
| 20260509013027 | 55 | 219 | 2.0 | 6.0 | 0.00 | 0.00 | 0.00 | 71 | 1022.1 |
| 20260509011530 | 56 | 236 | 2.0 | 5.0 | 0.00 | 0.00 | 0.00 | 69 | 1022.1 |
| 20260509010014 | 56 | 245 | 2.0 | 6.0 | 0.00 | 0.00 | 0.00 | 69 | 1022.1 |
| 20260509004526 | 56 | 245 | 3.0 | 7.0 | 0.00 | 0.00 | 0.00 | 68 | 1022.2 |
| 20260509003042 | 56 | 242 | 2.0 | 6.0 | 0.00 | 0.00 | 0.00 | 69 | 1022.2 |
| 20260509001539 | 56 | 238 | 3.0 | 7.0 | 0.00 | 0.00 | 0.00 | 69 | 1022.2 |
| 20260509000024 | 56 | 207 | 2.0 | 5.0 | 0.00 | 0.00 | 0.00 | 69 | 1022.2 |
| 20260508234529 | 56 | 238 | 2.0 | 5.0 | 0.00 | 0.00 | 0.00 | 69 | 1022.2 |
| 20260508233030 | 56 | 193 | 2.0 | 5.0 | 0.00 | 0.00 | 0.00 | 67 | 1022.1 |
| 20260508231537 | 57 | 261 | 0.0 | 3.0 | 0.00 | 0.00 | 0.00 | 69 | 1022.1 |
| 20260508230020 | 57 | 352 | 1.0 | 3.0 | 0.00 | 0.00 | 0.00 | 70 | 1022.0 |
| 20260508224523 | 56 | 352 | 0.0 | 3.0 | 0.00 | 0.00 | 0.00 | 70 | 1021.9 |
| 20260508223028 | 57 | 300 | 0.0 | 2.0 | 0.00 | 0.00 | 0.00 | 71 | 1021.9 |
| 20260508221527 | 56 | 222 | 0.0 | 5.0 | 0.00 | 0.00 | 0.00 | 70 | 1022.0 |
| 20260508220019 | 55 | 204 | 1.0 | 5.0 | 0.00 | 0.00 | 0.00 | 71 | 1022.0 |
| 20260508184613 | 51 | 236 | 0.0 | 7.0 | 0.00 | 0.00 | 0.00 | 82 | 1020.8 |
| 20260508183100 | 51 | 188 | 3.0 | 7.0 | 0.00 | 0.00 | 0.00 | 81 | 1020.7 |
| 20260508181551 | 51 | 207 | 2.0 | 5.0 | 0.00 | 0.00 | 0.00 | 81 | 1020.8 |
| 20260508174600 | 51 | 228 | 3.0 | 7.0 | 0.00 | 0.00 | 0.00 | 83 | 1020.5 |
| 20260508173100 | 51 | 219 | 2.0 | 7.0 | 0.00 | 0.00 | 0.00 | 84 | 1020.1 |
| 20260508171604 | 51 | 236 | 1.0 | 6.0 | 0.00 | 0.00 | 0.00 | 84 | 1020.2 |
| 20260508170106 | 50 | 198 | 1.0 | 5.0 | 0.00 | 0.00 | 0.00 | 84 | 1020.1 |
| 20260508164552 | 50 | 182 | 2.0 | 6.0 | 0.00 | 0.00 | 0.00 | 85 | 1019.8 |
| 20260508163116 | 51 | 205 | 2.0 | 10.0 | 0.00 | 0.00 | 0.00 | 85 | 1019.6 |
| 20260508161601 | 51 | 218 | 3.0 | 7.0 | 0.00 | 0.00 | 0.00 | 85 | 1019.3 |
| 20260508160103 | 51 | 227 | 4.0 | 8.0 | 0.00 | 0.00 | 0.00 | 85 | 1019.2 |
| 20260508154553 | 51 | 228 | 2.0 | 5.0 | 0.00 | 0.00 | 0.00 | 85 | 1019.2 |
| 20260508153056 | 51 | 191 | 2.0 | 4.0 | 0.00 | 0.00 | 0.00 | 86 | 1019.2 |
| 20260508151554 | 50 | 176 | 2.0 | 6.0 | 0.00 | 0.00 | 0.00 | 87 | 1018.8 |
| 20260508150106 | 50 | 219 | 4.0 | 7.0 | 0.00 | 0.00 | 0.00 | 88 | 1019.1 |
| 20260508144551 | 50 | 188 | 2.0 | 5.0 | 0.00 | 0.00 | 0.00 | 88 | 1018.9 |
| 20260508143053 | 50 | 185 | 2.0 | 6.0 | 0.00 | 0.00 | 0.00 | 88 | 1018.7 |
| 20260508141558 | 49 | 188 | 2.0 | 6.0 | 0.00 | 0.00 | 0.00 | 88 | 1018.6 |
| 20260508140057 | 49 | 120 | 2.0 | 8.0 | 0.00 | 0.00 | 0.00 | 89 | 1018.4 |
| 20260508134544 | 49 | 219 | 2.0 | 7.0 | 0.00 | 0.00 | 0.00 | 89 | 1018.2 |
| 20260508133047 | 49 | 212 | 1.0 | 8.0 | 0.00 | 0.00 | 0.00 | 90 | 1018.1 |
| 20260508131553 | 48 | 186 | 0.0 | 4.0 | 0.00 | 0.00 | 0.00 | 90 | 1017.7 |
| 20260508130104 | 48 | 218 | 1.0 | 3.0 | 0.00 | 0.00 | 0.00 | 90 | 1017.7 |
| 20260508124535 | 48 | 188 | 1.0 | 4.0 | 0.00 | 0.00 | 0.00 | 90 | 1017.7 |
| 20260508123040 | 48 | 215 | 2.0 | 5.0 | 0.00 | 0.00 | 0.00 | 91 | 1017.6 |
| 20260508121541 | 48 | 210 | 2.0 | 4.0 | 0.00 | 0.00 | 0.00 | 91 | 1017.6 |
| 20260508120045 | 48 | 189 | 2.0 | 5.0 | 0.00 | 0.00 | 0.00 | 91 | 1017.8 |
| 20260508114528 | 47 | 220 | 1.0 | 4.0 | 0.00 | 0.00 | 0.00 | 92 | 1017.5 |
| 20260508113037 | 47 | 188 | 1.0 | 4.0 | 0.00 | 0.00 | 0.00 | 92 | 1017.5 |
| 20260508111537 | 46 | 188 | 1.0 | 3.0 | 0.00 | 0.00 | 0.00 | 92 | 1017.5 |
| 20260508110053 | 44 | 214 | 0.0 | 2.0 | 0.00 | 0.00 | 0.00 | 92 | 1017.3 |
| 20260508104525 | 44 | 214 | 0.0 | 0.0 | 0.00 | 0.00 | 0.00 | 92 | 1017.0 |
| 20260508103035 | 43 | 214 | 0.0 | 1.0 | 0.00 | 0.00 | 0.00 | 92 | 1017.1 |
| 20260508101536 | 43 | 214 | 0.0 | 0.0 | 0.00 | 0.00 | 0.00 | 92 | 1017.0 |
| 20260508100016 | 43 | 214 | 0.0 | 0.0 | 0.00 | 0.00 | 0.00 | 92 | 1017.0 |
| 20260508094518 | 43 | 214 | 0.0 | 0.0 | 0.00 | 0.00 | 0.00 | 92 | 1016.9 |
| 20260508093039 | 43 | 214 | 0.0 | 0.0 | 0.00 | 0.00 | 0.00 | 92 | 1016.8 |
| 20260508091525 | 44 | 214 | 0.0 | 0.0 | 0.00 | 0.00 | 0.00 | 92 | 1016.6 |
| 20260508090023 | 44 | 214 | 0.0 | 2.0 | 0.00 | 0.00 | 0.00 | 92 | 1016.7 |
| 20260508084521 | 44 | 214 | 0.0 | 1.0 | 0.00 | 0.00 | 0.00 | 92 | 1016.7 |
| 20260508083022 | 44 | 214 | 0.0 | 0.0 | 0.00 | 0.00 | 0.00 | 92 | 1016.6 |
| 20260508081517 | 44 | 214 | 0.0 | 0.0 | 0.00 | 0.00 | 0.00 | 92 | 1016.6 |
| 20260508080047 | 44 | 214 | 0.0 | 0.0 | 0.00 | 0.00 | 0.00 | 92 | 1016.7 |
| 20260508074535 | 44 | 214 | 0.0 | 0.0 | 0.00 | 0.00 | 0.00 | 92 | 1016.8 |
| 20260508073031 | 44 | 214 | 0.0 | 0.0 | 0.00 | 0.00 | 0.00 | 92 | 1016.6 |
| 20260508071535 | 44 | 214 | 0.0 | 0.0 | 0.00 | 0.00 | 0.00 | 92 | 1016.9 |
| 20260508070048 | 44 | 214 | 0.0 | 0.0 | 0.00 | 0.00 | 0.00 | 91 | 1016.9 |
| 20260508064532 | 44 | 214 | 0.0 | 0.0 | 0.00 | 0.00 | 0.00 | 91 | 1017.0 |
| 20260508063036 | 44 | 214 | 0.0 | 0.0 | 0.00 | 0.00 | 0.00 | 91 | 1017.1 |
| 20260508061539 | 44 | 214 | 0.0 | 0.0 | 0.00 | 0.00 | 0.00 | 91 | 1017.0 |
| 20260508060044 | 44 | 214 | 0.0 | 0.0 | 0.00 | 0.00 | 0.00 | 91 | 1017.2 |
| 20260508054527 | 45 | 214 | 0.0 | 0.0 | 0.00 | 0.00 | 0.00 | 91 | 1017.3 |
| 20260508053031 | 45 | 214 | 0.0 | 0.0 | 0.00 | 0.00 | 0.00 | 91 | 1017.4 |
| 20260508051506 | 45 | 214 | 0.0 | 1.0 | 0.00 | 0.00 | 0.00 | 90 | 1017.4 |
| 20260508050124 | 45 | 214 | 0.0 | 0.0 | 0.00 | 0.00 | 0.00 | 90 | 1017.4 |
| 20260508044507 | 46 | 214 | 0.0 | 0.0 | 0.00 | 0.00 | 0.00 | 89 | 1017.3 |
| 20260508043015 | 47 | 214 | 0.0 | 0.0 | 0.00 | 0.00 | 0.00 | 88 | 1017.3 |
| 20260508041519 | 48 | 214 | 0.0 | 0.0 | 0.00 | 0.00 | 0.00 | 87 | 1017.4 |
| 20260508040008 | 49 | 214 | 0.0 | 1.0 | 0.00 | 0.00 | 0.00 | 87 | 1017.3 |
| 20260508034512 | 50 | 214 | 0.0 | 0.0 | 0.00 | 0.00 | 0.00 | 86 | 1017.4 |
| 20260508033017 | 50 | 214 | 0.0 | 2.0 | 0.00 | 0.00 | 0.00 | 85 | 1017.5 |
| 20260508031514 | 51 | 238 | 0.0 | 3.0 | 0.00 | 0.00 | 0.00 | 84 | 1017.4 |
| 20260508030125 | 51 | 213 | 1.0 | 4.0 | 0.00 | 0.00 | 0.00 | 83 | 1017.5 |
| 20260508024505 | 51 | 219 | 2.0 | 5.0 | 0.00 | 0.00 | 0.00 | 84 | 1017.5 |
| 20260508023016 | 51 | 204 | 2.0 | 8.0 | 0.00 | 0.00 | 0.00 | 84 | 1017.7 |
| 20260508021514 | 51 | 231 | 2.0 | 6.0 | 0.00 | 0.00 | 0.00 | 84 | 1017.9 |